Weather History for Billings, MT

Change the Weather History Date:

Monday, January 7, 2013

  Actual Average Record
Temperature  
Mean Temperature 37 °F 26 °F  
Max Temperature 46 °F 36 °F 60 °F (1954)
Min Temperature 27 °F 17 °F -30 °F (1937)
Degree Days  
Heating Degree Days 28 39  
Month to date heating degree days 250 273  
Since 1 July heating degree days 2791 3094  
Cooling Degree Days 0 0  
Month to date cooling degree days 0 0  
Year to date cooling degree days 0 0  
Moisture  
Dew Point 18 °F    
Average Humidity 52    
Maximum Humidity 63    
Minimum Humidity 40    
Precipitation  
Precipitation 0.00 in 0.02 in 0.40 in (1962)
Month to date precipitation 0.01 0.11  
Year to date precipitation 0.01 0.11  
Snow  
Snow 0.00 in 0.30 in 5.00 in (1962)
Month to date snowfall 0.1 2.0  
Since 1 July snowfall 16.4 21.9  
Snow Depth T in    
Sea Level Pressure  
Sea Level Pressure 29.85 in    
Wind  
Wind Speed 12 mph (SW)    
Max Wind Speed 28 mph    
Max Gust Speed 33 mph    
Visibility 10 miles    
Events      
T = Trace of Precipitation, MM = Missing Value Source: NWS Daily Summary

Daily Weather History Graph

Daily Weather History Graph

Search for Another Location

Airport:

Trip Planner

Search our weather history database for the weather conditions in past years. The results will help you decide how hot, cold, wet, or windy it might be!

Date:

Astronomy

Jan. 07, 2013 Rise Set
Actual Time 7:54 AM MST 4:46 PM MST
Civil Twilight 7:20 AM MST 5:20 PM MST
Nautical Twilight 6:43 AM MST 5:58 PM MST
Astronomical Twilight 6:07 AM MST 6:34 PM MST
Moon 3:18 AM MST (1/7) 1:02 PM MST (1/7)
Length of Visible Light 10h 00m
Length of Day
8h 52m
Waning Crescent, 22% of the Moon is Illuminated
Jan 7
Waning Crescent
Jan 11
New
Jan 18
First Quarter
Jan 26
Full
Feb 3
Last Quarter

Hourly Weather History & Observations

Time (MST) Temp. Windchill Dew Point Humidity Pressure Visibility Wind Dir Wind Speed Gust Speed Precip Events Conditions
12:53 AM 30.9 °F 21.7 °F 17.1 °F 57% 29.96 in 10.0 mi SW 11.5 mph - N/A   Mostly Cloudy
1:53 AM 30.0 °F 19.5 °F 17.1 °F 59% 29.96 in 10.0 mi West 13.8 mph - N/A   Mostly Cloudy
2:53 AM 32.0 °F 23.6 °F 19.9 °F 61% 29.95 in 10.0 mi SW 10.4 mph - N/A   Scattered Clouds
3:53 AM 32.0 °F 23.6 °F 19.0 °F 59% 29.94 in 10.0 mi WSW 10.4 mph - N/A   Partly Cloudy
4:53 AM 33.1 °F 23.0 °F 19.0 °F 56% 29.95 in 10.0 mi WSW 15.0 mph - N/A   Scattered Clouds
5:53 AM 28.9 °F 16.1 °F 15.1 °F 56% 29.96 in 10.0 mi WSW 19.6 mph 26.5 mph N/A   Clear
6:53 AM 32.0 °F 22.5 °F 17.1 °F 54% 29.96 in 10.0 mi WSW 12.7 mph - N/A   Clear
7:53 AM 28.9 °F 20.4 °F 17.1 °F 61% 29.97 in 10.0 mi SSW 9.2 mph - N/A   Mostly Cloudy
8:53 AM 28.0 °F 18.1 °F 16.0 °F 61% 29.99 in 10.0 mi WSW 11.5 mph - N/A   Mostly Cloudy
9:53 AM 28.9 °F 20.4 °F 16.0 °F 58% 29.98 in 10.0 mi SW 9.2 mph - N/A   Mostly Cloudy
10:53 AM 34.0 °F 25.0 °F 17.1 °F 50% 29.96 in 10.0 mi SW 12.7 mph - N/A   Mostly Cloudy
11:53 AM 35.6 °F 28.6 °F 17.6 °F 48% 29.84 in 10.0 mi SSW 9.2 mph - N/A   Scattered Clouds
12:53 PM 37.0 °F 31.6 °F 17.1 °F 44% 29.86 in 10.0 mi SSW 6.9 mph - N/A   Scattered Clouds
1:53 PM 39.9 °F 35.1 °F 18.0 °F 41% 29.83 in 10.0 mi West 6.9 mph - N/A   Mostly Cloudy
2:53 PM 39.9 °F 34.5 °F 19.0 °F 43% 29.80 in 10.0 mi West 8.1 mph - N/A   Mostly Cloudy
3:53 PM 41.0 °F 37.1 °F 19.4 °F 42% 29.72 in 10.0 mi South 5.8 mph - N/A   Mostly Cloudy
4:53 PM 39.0 °F 34.0 °F 19.0 °F 45% 29.76 in 10.0 mi SW 6.9 mph - N/A   Mostly Cloudy
5:53 PM 37.9 °F 29.6 °F 19.0 °F 47% 29.78 in 10.0 mi WSW 13.8 mph - N/A   Mostly Cloudy
6:53 PM 37.9 °F 30.0 °F 19.0 °F 47% 29.76 in 10.0 mi SW 12.7 mph - N/A   Overcast
7:53 PM 36.0 °F 29.6 °F 19.9 °F 52% 29.75 in 10.0 mi SSW 8.1 mph - N/A   Overcast
8:53 PM 36.0 °F 26.0 °F 19.0 °F 50% 29.72 in 10.0 mi WSW 17.3 mph - N/A   Overcast
9:53 PM 35.1 °F 24.8 °F 19.0 °F 52% 29.71 in 10.0 mi WSW 17.3 mph - N/A   Mostly Cloudy
10:53 PM 36.0 °F 27.5 °F 19.0 °F 50% 29.70 in 10.0 mi SW 12.7 mph - N/A   Mostly Cloudy
11:31 PM 44.6 °F 35.9 °F 21.2 °F 39% 29.64 in 10.0 mi West 23.0 mph 33.4 mph N/A   Scattered Clouds
11:53 PM 43.0 °F 36.0 °F 21.9 °F 43% 29.68 in 10.0 mi WSW 13.8 mph 27.6 mph N/A   Scattered Clouds